TimeCDT,TemperatureF,Dew PointF,Humidity,Sea Level PressureIn,VisibilityMPH,Wind Direction,Wind SpeedMPH,Gust SpeedMPH,PrecipitationIn,Events,Conditions,WindDirDegrees,DateUTC
12:56 AM,37.9,37.9,100,30.08,-9999.0,Calm,Calm,-,N/A,,Clear,0,2012-10-21 05:56:00
1:56 AM,36.9,36.9,100,30.10,-9999.0,Calm,Calm,-,N/A,,Clear,0,2012-10-21 06:56:00
2:56 AM,36.0,36.0,100,30.10,-9999.0,Calm,Calm,-,N/A,,Clear,0,2012-10-21 07:56:00
3:56 AM,36.9,36.9,100,30.12,-9999.0,Calm,Calm,-,N/A,,Clear,0,2012-10-21 08:56:00
4:56 AM,36.0,36.0,100,30.15,-9999.0,Calm,Calm,-,N/A,,Clear,0,2012-10-21 09:56:00
5:56 AM,36.9,36.9,100,30.17,-9999.0,Calm,Calm,-,N/A,,Clear,0,2012-10-21 10:56:00
6:56 AM,36.9,36.9,100,30.18,-9999.0,Calm,Calm,-,N/A,,Clear,0,2012-10-21 11:56:00
7:56 AM,43.0,43.0,100,30.19,-9999.0,Calm,Calm,-,N/A,,Clear,0,2012-10-21 12:56:00
8:56 AM,52.9,45.9,77,30.19,-9999.0,Calm,Calm,-,N/A,,Clear,0,2012-10-21 13:56:00
9:56 AM,57.9,46.9,67,30.20,-9999.0,Calm,Calm,-,N/A,,Clear,0,2012-10-21 14:56:00
11:56 AM,65.8,46.9,50,30.18,-9999.0,Calm,Calm,-,N/A,,Clear,0,2012-10-21 16:56:00
12:56 PM,68.0,45.0,43,30.16,-9999.0,Calm,Calm,-,N/A,,Clear,0,2012-10-21 17:56:00
1:56 PM,70.9,45.0,39,30.14,-9999.0,Calm,Calm,-,N/A,,Clear,0,2012-10-21 18:56:00
2:56 PM,72.0,45.0,38,30.13,-9999.0,Calm,Calm,-,N/A,,Clear,0,2012-10-21 19:56:00
3:56 PM,72.9,43.9,35,30.13,-9999.0,Calm,Calm,-,N/A,,Clear,0,2012-10-21 20:56:00
4:56 PM,70.0,46.9,44,30.13,-9999.0,Calm,Calm,-,N/A,,Clear,0,2012-10-21 21:56:00
5:56 PM,59.9,45.9,60,30.14,-9999.0,Calm,Calm,-,N/A,,Clear,0,2012-10-21 22:56:00
6:56 PM,52.0,45.9,80,30.15,-9999.0,Calm,Calm,-,N/A,,Clear,0,2012-10-21 23:56:00
7:56 PM,50.0,45.9,86,30.15,-9999.0,Calm,Calm,-,N/A,,Clear,0,2012-10-22 00:56:00
8:56 PM,46.9,45.0,93,30.17,-9999.0,Calm,Calm,-,N/A,,Clear,0,2012-10-22 01:56:00
9:56 PM,45.9,43.9,93,30.17,-9999.0,Calm,Calm,-,N/A,,Clear,0,2012-10-22 02:56:00
11:56 PM,52.9,46.9,80,30.16,-9999.0,Calm,Calm,-,N/A,,Clear,0,2012-10-22 04:56:00